Location: Peebles
(55.6412°N, 3.1714°W)
Time: 15:33:35
(UTC+01:00)

COSMOS 2487 - Pass Details

Date: 26 September 2021
Orbit: 426 x 428 km, 74.7° (Epoch: 17 October)

Event Time Altitude Azimuth Distance (km) Brightness Sun altitude
Rises 21:29:51 0° 332° (NNW) 2,406 7.1 -21.0°
Reaches altitude 10° 21:31:55 10° 330° (NNW) 1,534 5.9 -21.3°
Enters shadow 21:35:01 67° 286° (WNW) 469 2.6 -21.6°
